Location: Marne
(34.0056°N, 117.9064°W)
Time: 15:22:06
(UTC+00:00)

Cosmos 2237 Rocket - Pass Details

Date: 18 January 2020
Orbit: 836 x 848 km, 71.0° (Epoch: 26 February)

Event Time Altitude Azimuth Distance (km) Brightness Sun altitude
Rises 01:31:15 0° 2° (N) 3,392 5.1 -5.4°
Reaches altitude 10° 01:36:01 10° 38° (NE) 2,452 4.1 -6.3°
Maximum altitude 01:37:26 11° 53° (NE) 2,385 3.9 -6.6°
Drops below altitude 10° 01:38:52 10° 68° (ENE) 2,449 3.9 -6.9°
Enters shadow 01:40:14 - 80° (E) 2,622 4.1 -7.2°
